TimeMDT,TemperatureF,Dew PointF,Humidity,Sea Level PressureIn,VisibilityMPH,Wind Direction,Wind SpeedMPH,Gust SpeedMPH,PrecipitationIn,Events,Conditions,WindDirDegrees,DateUTC
12:53 AM,48.0,21.9,36,30.13,10.0,South,9.2,-,N/A,,Clear,170,2012-09-09 06:53:00
1:53 AM,48.9,24.1,38,30.11,10.0,South,13.8,-,N/A,,Clear,180,2012-09-09 07:53:00
2:53 AM,46.9,25.0,42,30.10,-9999.0,South,9.2,-,N/A,,Clear,180,2012-09-09 08:53:00
3:53 AM,43.0,24.1,47,30.11,10.0,Variable,4.6,-,N/A,,Clear,0,2012-09-09 09:53:00
4:53 AM,41.0,23.0,49,30.12,10.0,SSW,8.1,-,N/A,,Clear,200,2012-09-09 10:53:00
5:53 AM,37.9,23.0,55,30.13,10.0,SSW,9.2,-,N/A,,Clear,200,2012-09-09 11:53:00
6:53 AM,39.0,23.0,53,30.13,10.0,South,9.2,-,N/A,,Clear,190,2012-09-09 12:53:00
7:53 AM,50.0,26.1,39,30.14,10.0,South,9.2,-,N/A,,Clear,190,2012-09-09 13:53:00
8:53 AM,57.9,28.0,32,30.12,10.0,South,6.9,-,N/A,,Clear,170,2012-09-09 14:53:00
9:53 AM,66.2,28.4,24,30.37,10.0,SSW,10.4,-,N/A,,Clear,210,2012-09-09 15:53:00
10:53 AM,73.0,25.0,17,30.05,10.0,SW,8.1,-,N/A,,Clear,220,2012-09-09 16:53:00
11:53 AM,77.0,21.0,12,30.03,10.0,WSW,16.1,21.9,N/A,,Clear,240,2012-09-09 17:53:00
12:53 PM,79.0,19.9,11,29.98,10.0,WSW,19.6,24.2,N/A,,Clear,250,2012-09-09 18:53:00
1:53 PM,80.1,19.0,10,29.96,10.0,SSW,17.3,24.2,N/A,,Clear,210,2012-09-09 19:53:00
2:00 PM,80.6,19.4,10,30.27,10.0,SW,12.7,26.5,N/A,,Clear,220,2012-09-09 20:00:00
2:53 PM,80.1,18.0,10,29.93,10.0,SW,12.7,23.0,N/A,,Clear,230,2012-09-09 20:53:00
3:53 PM,82.0,19.0,10,29.91,10.0,SW,13.8,24.2,N/A,,Clear,220,2012-09-09 21:53:00
4:53 PM,79.0,25.0,14,29.93,10.0,SSE,20.7,25.3,N/A,,Clear,160,2012-09-09 22:53:00
5:53 PM,77.0,25.0,15,29.94,10.0,SSE,17.3,25.3,N/A,,Clear,160,2012-09-09 23:53:00
6:53 PM,71.1,25.0,18,29.96,10.0,SE,12.7,21.9,N/A,,Clear,140,2012-09-10 00:53:00
7:53 PM,66.0,28.9,25,29.94,10.0,SE,11.5,-,N/A,,Clear,140,2012-09-10 01:53:00
8:53 PM,61.0,28.9,30,29.93,10.0,South,11.5,-,N/A,,Clear,180,2012-09-10 02:53:00
9:53 PM,57.0,28.0,33,29.91,10.0,South,8.1,-,N/A,,Clear,170,2012-09-10 03:53:00
10:53 PM,54.0,28.0,37,29.91,10.0,South,12.7,-,N/A,,Clear,170,2012-09-10 04:53:00
11:53 PM,50.0,25.0,38,29.90,10.0,SSW,3.5,-,N/A,,Clear,200,2012-09-10 05:53:00